This demonstration page uses our WeatherBlox Daily Observations layout. Learn more.

Hourly Observations for March 7, 2019

Temp ( °F °C ) Dew Point ( °F °C ) Humidity (%) Winds ( mph kmh ) Pressure ( in mb ) Visibility ( mi km ) Precip ( " mm )
12:15 am 00:15 Cloudy 25 -3.7 23 -4.9 91 91 E 14 22 30.17 1022 10 16.0934 0 0
12:35 am 00:35 Cloudy 26 -3.5 23 -5 89 89 E 13 20 30.15 1021 10 16.0934 0 0
12:55 am 00:55 Cloudy 25 -3.7 23 -5 91 91 ENE 16 26 30.15 1021 10 16.0934 0 0
1:15 am 01:15 Cloudy 25 -3.7 23 -5 91 91 ENE 16 26 30.16 1021 10 16.0934 0 0
1:35 am 01:35 Mostly Cloudy 26 -3.6 23 -4.9 91 91 ENE 21 33 30.15 1021 10 16.0934 0 0
1:55 am 01:55 Partly Cloudy 26 -3.5 23 -5 89 89 ENE 20 31 30.17 1022 10 16.0934 0 0
2:15 am 02:15 Mostly Cloudy 26 -3.5 23 -5 89 89 ENE 21 33 30.15 1021 10 16.0934 0 0
2:35 am 02:35 Partly Cloudy 25 -3.7 24 -4.7 93 93 ENE 16 26 30.17 1022 10 16.0934 0 0
2:55 am 02:55 Mostly Cloudy 25 -3.7 24 -4.7 93 93 ENE 15 24 30.17 1022 10 16.0934 0 0
3:15 am 03:15 Cloudy 25 -3.7 24 -4.5 94 94 ENE 16 26 30.15 1021 10 16.0934 0 0
3:35 am 03:35 Cloudy 25 -3.7 24 -4.4 95 95 ENE 17 28 30.13 1020 10 16.0934 0 0
3:55 am 03:55 Cloudy 25 -3.7 24 -4.5 94 94 ENE 18 30 30.13 1020 10 16.0934 0 0
4:15 am 04:15 Mostly Cloudy 25 -3.7 24 -4.5 94 94 E 17 28 30.11 1020 10 16.0934 0 0
4:35 am 04:35 Partly Cloudy 25 -3.7 24 -4.5 94 94 E 21 33 30.09 1019 10 16.0934 0 0
4:55 am 04:55 Clear 26 -3.6 24 -4.5 94 94 E 22 35 30.1 1019 10 16.0934 0 0
5:15 am 05:15 Clear 26 -3.5 24 -4.2 95 95 E 18 30 30.12 1020 10 16.0934 0 0
5:35 am 05:35 Clear 26 -3.5 25 -4.1 96 96 E 17 28 30.13 1020 10 16.0934 0 0
5:55 am 05:55 Clear 26 -3.5 25 -4 96 96 E 13 20 30.14 1021 10 16.0934 0 0
6:15 am 06:15 Clear 26 -3.5 25 -4 96 96 E 15 24 30.13 1020 10 16.0934 0 0
6:35 am 06:35 Clear 26 -3.5 25 -4 96 96 E 12 19 30.14 1021 10 16.0934 0 0
6:55 am 06:55 Mostly Cloudy 26 -3.5 25 -4 96 96 E 14 22 30.14 1021 7 11.26538 0 0
7:15 am 07:15 Cloudy with Mist and Fog 26 -3.6 25 -3.9 98 98 E 16 26 30.13 1020 5 8.0467 0 0
7:35 am 07:35 Cloudy 25 -3.7 25 -4 98 98 E 15 24 30.13 1020 7 11.26538 0 0
7:55 am 07:55 Cloudy with Mist and Fog 26 -3.6 25 -3.8 99 99 E 14 22 30.15 1021 5 8.0467 0 0
8:15 am 08:15 Cloudy with Mist and Fog 26 -3.6 25 -3.8 99 99 E 14 22 30.14 1021 5 8.0467 0 0
8:35 am 08:35 Cloudy with Mist and Fog 26 -3.4 26 -3.6 99 99 E 14 22 30.14 1021 5 8.0467 0 0
8:55 am 08:55 Cloudy 26 -3.2 26 -3.5 98 98 E 14 22 30.14 1021 7 11.26538 0 0
9:15 am 09:15 Cloudy 26 -3.3 25 -3.7 97 97 E 17 28 30.14 1021 7 11.26538 0 0
9:35 am 09:35 Cloudy 27 -3 26 -3.5 96 96 E 17 28 30.13 1020 10 16.0934 0 0
9:55 am 09:55 Cloudy 27 -2.6 26 -3.4 94 94 E 16 26 30.14 1021 10 16.0934 0 0
10:15 am 10:15 Cloudy 28 -2.4 26 -3.2 94 94 E 18 30 30.13 1020 10 16.0934 0 0
10:35 am 10:35 Cloudy 28 -2 27 -3 93 93 E 15 24 30.12 1020 10 16.0934 0 0
10:55 am 10:55 Cloudy 29 -1.8 26 -3.1 91 91 E 15 24 30.13 1020 10 16.0934 0 0
11:15 am 11:15 Cloudy 29 -1.5 27 -2.8 91 91 E 14 22 30.13 1020 10 16.0934 0 0
11:35 am 11:35 Cloudy 30 -1.3 27 -2.7 90 90 E 15 24 30.11 1020 10 16.0934 0 0
11:55 am 11:55 Cloudy 30 -1.2 27 -2.6 90 90 E 15 24 30.11 1020 10 16.0934 0 0
12:15 pm 12:15 Cloudy 30 -1.2 27 -2.8 89 89 E 14 22 30.11 1020 10 16.0934 0 0
12:35 pm 12:35 Cloudy 30 -1.1 27 -2.8 88 88 E 12 19 30.1 1019 10 16.0934 0 0
12:55 pm 12:55 Cloudy 30 -1 27 -2.7 88 88 E 13 20 30.08 1019 10 16.0934 0 0
1:15 pm 13:15 Cloudy 30 -1 27 -2.6 89 89 E 12 19 30.07 1018 10 16.0934 0 0
1:35 pm 13:35 Cloudy 30 -1 27 -2.6 89 89 E 12 19 30.07 1018 10 16.0934 0 0
1:55 pm 13:55 Cloudy 30 -1.2 27 -2.7 90 90 E 13 20 30.07 1018 10 16.0934 0 0
2:15 pm 14:15 Cloudy 30 -1 27 -2.6 89 89 ENE 10 17 30.06 1018 10 16.0934 0 0
2:35 pm 14:35 Cloudy 30 -1.1 27 -2.6 90 90 E 10 17 30.05 1017 10 16.0934 0 0
2:55 pm 14:55 Cloudy 29 -1.5 27 -2.6 92 92 ENE 12 19 30.06 1018 10 16.0934 0 0
3:15 pm 15:15 Cloudy 29 -1.5 28 -2.5 93 93 ENE 12 19 30.07 1018 10 16.0934 0 0
3:35 pm 15:35 Cloudy 29 -1.5 28 -2.5 93 93 ENE 12 19 30.06 1018 10 16.0934 0 0
3:55 pm 15:55 Cloudy 29 -1.5 27 -2.6 92 92 ENE 13 20 30.06 1018 10 16.0934 0 0
4:15 pm 16:15 Cloudy 29 -1.8 27 -2.6 94 94 ENE 12 19 30.06 1018 10 16.0934 0 0
4:35 pm 16:35 Cloudy 29 -1.9 27 -2.7 94 94 ENE 13 20 30.06 1018 10 16.0934 0 0
4:55 pm 16:55 Cloudy 28 -2.1 27 -2.7 96 96 ENE 10 17 30.07 1018 7 11.26538 0 0
5:15 pm 17:15 Cloudy 28 -2.2 27 -2.7 96 96 ENE 13 20 30.08 1018 7 11.26538 0 0
5:35 pm 17:35 Cloudy with Mist and Fog 28 -2.5 27 -2.7 99 99 ENE 10 17 30.08 1019 5 8.0467 0 0
5:55 pm 17:55 Cloudy with Mist and Fog 28 -2.5 27 -2.8 98 98 ENE 10 17 30.08 1019 5 8.0467 0 0
6:15 pm 18:15 Cloudy with Mist and Fog 28 -2.5 27 -2.8 98 98 ENE 9 15 30.09 1019 5 8.0467 0 0
6:35 pm 18:35 Cloudy 28 -2.5 27 -2.7 99 99 ENE 10 17 30.09 1019 7 11.26538 0 0
6:55 pm 18:55 Cloudy 27 -2.6 27 -2.8 99 99 ENE 8 13 30.09 1019 7 11.26538 0 0
7:15 pm 19:15 Cloudy 27 -2.7 27 -3 98 98 NE 9 15 30.09 1019 7 11.26538 0 0
7:35 pm 19:35 Cloudy 27 -2.7 27 -2.9 99 99 ENE 7 11 30.1 1019 7 11.26538 0 0
7:55 pm 19:55 Cloudy 27 -2.7 27 -3 98 98 E 7 11 30.09 1019 7 11.26538 0 0
8:15 pm 20:15 Cloudy 27 -2.8 27 -3 99 99 E 6 9 30.09 1019 7 11.26538 0 0
8:35 pm 20:35 Mostly Cloudy with Mist and Fog 26 -3.2 26 -3.4 99 99 E 7 11 30.1 1019 5 8.0467 0 0
8:55 pm 20:55 Mostly Cloudy with Mist and Fog 25 -3.8 25 -3.8 100 100 E 6 9 30.09 1019 5 8.0467 0 0
9:15 pm 21:15 Cloudy with Mist and Fog 26 -3.6 26 -3.6 100 100 ESE 6 9 30.1 1019 5 8.0467 0 0
9:35 pm 21:35 Cloudy with Mist and Fog 26 -3.4 26 -3.4 100 100 E 5 7 30.1 1019 5 8.0467 0 0
9:55 pm 21:55 Cloudy with Mist and Fog 26 -3.1 26 -3.1 100 100 Calm 30.1 1019 5 8.0467 0 0
10:15 pm 22:15 Cloudy with Mist and Fog 27 -3 27 -3 100 100 E 5 7 30.09 1019 5 8.0467 0 0
10:35 pm 22:35 Cloudy 27 -3 27 -3 100 100 ESE 7 11 30.1 1019 7 11.26538 0 0
10:55 pm 22:55 Cloudy 27 -3 27 -3 100 100 ESE 7 11 30.09 1019 7 11.26538 0 0
11:15 pm 23:15 Cloudy 27 -3 27 -3 100 100 E 6 9 30.09 1019 7 11.26538 0 0
11:35 pm 23:35 Cloudy 27 -3 27 -3 100 100 ESE 5 7 30.1 1019 7 11.26538 0 0
11:55 pm 23:55 Cloudy 27 -2.8 27 -2.8 100 100 ESE 5 7 30.1 1019 7 11.26538 0 0

Powered by AerisWeather